ITY1607 LIRF-LIBD

Flight info

Callsign ITY1607
Flight time 0h 45m
Altitude 33000
Route SIPRO DCT EKTOL DCT DOGUS
Aircraft A320/M-SDE3FGHIRWY/LB1

Departure

Time 2026-05-08 05:38
Airport Rome–Fiumicino Leonardo da Vinci International Airport (LIRF)

Arrival

Time 2026-05-08 06:23
Airport Bari Karol Wojtyła International Airport (LIBD)
Time Latitude Longitude Altitude Speed Heading
2026-05-08 05:14 41.79820 12.26655 15 ft 0 kts 250°
2026-05-08 05:31 41.79812 12.26623 16 ft 6 kts 253°
2026-05-08 05:31 41.79833 12.26585 14 ft 7 kts 336°
2026-05-08 05:32 41.79895 12.26556 15 ft 10 kts 340°
2026-05-08 05:32 41.79954 12.26527 15 ft 8 kts 340°
2026-05-08 05:32 41.80022 12.26493 14 ft 12 kts 340°
2026-05-08 05:32 41.80103 12.26453 14 ft 13 kts 340°
2026-05-08 05:33 41.80186 12.26413 14 ft 12 kts 340°
2026-05-08 05:33 41.80262 12.26402 16 ft 11 kts 328°
2026-05-08 05:33 41.80300 12.26306 14 ft 12 kts 295°
2026-05-08 05:33 41.80331 12.26215 14 ft 10 kts 295°
2026-05-08 05:34 41.80378 12.26166 16 ft 8 kts 334°
2026-05-08 05:34 41.80429 12.26165 16 ft 10 kts 25°
2026-05-08 05:34 41.80499 12.26180 16 ft 10 kts 12°
2026-05-08 05:34 41.80533 12.26256 18 ft 12 kts 71°
2026-05-08 05:35 41.80566 12.26375 16 ft 15 kts 70°
2026-05-08 05:35 41.80605 12.26515 18 ft 17 kts 69°
2026-05-08 05:35 41.80649 12.26675 18 ft 20 kts 69°
2026-05-08 05:35 41.80697 12.26852 15 ft 18 kts 70°
2026-05-08 05:36 41.80736 12.26993 15 ft 13 kts 70°
2026-05-08 05:36 41.80812 12.27039 14 ft 15 kts 340°
2026-05-08 05:36 41.80909 12.26993 13 ft 13 kts 340°
2026-05-08 05:36 41.80958 12.26930 13 ft 10 kts 265°
2026-05-08 05:37 41.80951 12.26900 13 ft 0 kts 250°
2026-05-08 05:37 41.80877 12.26631 16 ft 71 kts 249°
2026-05-08 05:37 41.80626 12.25723 19 ft 135 kts 250°
2026-05-08 05:37 41.80240 12.24325 108 ft 176 kts 249°
2026-05-08 05:38 41.79819 12.22784 798 ft 176 kts 249°
2026-05-08 05:38 41.79340 12.21257 1475 ft 182 kts 237°
2026-05-08 05:38 41.78448 12.20011 1924 ft 197 kts 216°
2026-05-08 05:38 41.77320 12.18795 2457 ft 210 kts 217°
2026-05-08 05:39 41.76195 12.17592 3298 ft 210 kts 211°
2026-05-08 05:39 41.74843 12.16872 3969 ft 214 kts 189°
2026-05-08 05:39 41.73295 12.16829 4357 ft 234 kts 177°
2026-05-08 05:39 41.71579 12.16923 4811 ft 258 kts 177°
2026-05-08 05:40 41.69745 12.17024 5552 ft 268 kts 177°
2026-05-08 05:40 41.67859 12.17115 6396 ft 275 kts 178°
2026-05-08 05:40 41.65929 12.17187 7222 ft 280 kts 178°
2026-05-08 05:40 41.63961 12.17249 8059 ft 285 kts 178°
2026-05-08 05:41 41.61961 12.17311 8942 ft 289 kts 178°
2026-05-08 05:41 41.59934 12.17376 9813 ft 293 kts 178°
2026-05-08 05:41 41.57844 12.17442 10285 ft 312 kts 178°
2026-05-08 05:41 41.55590 12.17516 10569 ft 335 kts 178°
2026-05-08 05:42 41.53213 12.17598 11164 ft 345 kts 177°
2026-05-08 05:42 41.50794 12.17681 11957 ft 350 kts 176°
2026-05-08 05:42 41.48374 12.17765 12823 ft 353 kts 176°
2026-05-08 05:42 41.45879 12.17852 13704 ft 356 kts 176°
2026-05-08 05:43 41.43419 12.17934 14447 ft 358 kts 176°
2026-05-08 05:43 41.40921 12.18019 15175 ft 361 kts 176°
2026-05-08 05:43 41.38400 12.18106 15881 ft 363 kts 177°
2026-05-08 05:43 41.35870 12.18190 16590 ft 365 kts 177°
2026-05-08 05:44 41.33329 12.18276 17283 ft 367 kts 177°
2026-05-08 05:44 41.30762 12.18365 17973 ft 369 kts 178°
2026-05-08 05:44 41.28182 12.18452 18599 ft 372 kts 178°
2026-05-08 05:44 41.25585 12.18539 19197 ft 375 kts 178°
2026-05-08 05:45 41.22965 12.18650 19796 ft 377 kts 175°
2026-05-08 05:45 41.20440 12.19464 20355 ft 382 kts 157°
2026-05-08 05:45 41.18224 12.21433 20920 ft 389 kts 137°
2026-05-08 05:45 41.16641 12.24369 21461 ft 398 kts 116°
2026-05-08 05:46 41.15943 12.27949 21981 ft 408 kts 96°
2026-05-08 05:46 41.15884 12.31746 22492 ft 413 kts 92°
2026-05-08 05:46 41.15871 12.35570 22981 ft 418 kts 92°
2026-05-08 05:46 41.15866 12.39443 23470 ft 422 kts 92°
2026-05-08 05:47 41.15857 12.43353 23847 ft 426 kts 92°
2026-05-08 05:47 41.15838 12.47302 24241 ft 429 kts 92°
2026-05-08 05:47 41.15811 12.51277 24647 ft 432 kts 92°
2026-05-08 05:47 41.15780 12.55278 25050 ft 435 kts 92°
2026-05-08 05:48 41.15745 12.59310 25448 ft 437 kts 92°
2026-05-08 05:48 41.15710 12.63358 25860 ft 440 kts 92°
2026-05-08 05:48 41.15674 12.67441 26253 ft 442 kts 92°
2026-05-08 05:48 41.15636 12.71524 26629 ft 445 kts 92°
2026-05-08 05:49 41.15601 12.75586 26998 ft 447 kts 92°
2026-05-08 05:49 41.15564 12.79734 27352 ft 450 kts 92°
2026-05-08 05:49 41.15523 12.83908 27715 ft 452 kts 92°
2026-05-08 05:49 41.15479 12.88092 28067 ft 455 kts 92°
2026-05-08 05:50 41.15434 12.92287 28417 ft 457 kts 92°
2026-05-08 05:50 41.15386 12.96518 28755 ft 459 kts 92°
2026-05-08 05:50 41.15335 13.00765 29086 ft 461 kts 92°
2026-05-08 05:50 41.15285 13.05033 29411 ft 464 kts 92°
2026-05-08 05:51 41.15236 13.09332 29729 ft 466 kts 92°
2026-05-08 05:51 41.15185 13.13586 30007 ft 468 kts 92°
2026-05-08 05:51 41.15130 13.17911 30232 ft 470 kts 92°
2026-05-08 05:51 41.15071 13.22259 30462 ft 472 kts 92°
2026-05-08 05:52 41.15008 13.26621 30694 ft 474 kts 92°
2026-05-08 05:52 41.14943 13.31000 30924 ft 475 kts 92°
2026-05-08 05:52 41.14878 13.35381 31221 ft 474 kts 92°
2026-05-08 05:52 41.14812 13.39743 31547 ft 473 kts 92°
2026-05-08 05:53 41.14746 13.44118 31867 ft 472 kts 93°
2026-05-08 05:53 41.14681 13.48459 32193 ft 471 kts 93°
2026-05-08 05:53 41.14616 13.52816 32490 ft 471 kts 93°
2026-05-08 05:53 41.14550 13.57091 32783 ft 470 kts 93°
2026-05-08 05:54 41.14478 13.61429 32916 ft 468 kts 93°
2026-05-08 05:54 41.14326 13.69958 32934 ft 460 kts 93°
2026-05-08 05:55 41.14166 13.78446 32932 ft 459 kts 93°
2026-05-08 05:55 41.14006 13.86904 32920 ft 459 kts 93°
2026-05-08 05:56 41.13842 13.95402 32936 ft 459 kts 93°
2026-05-08 05:56 41.13671 14.03840 32932 ft 457 kts 93°
2026-05-08 05:57 41.13492 14.12282 32918 ft 457 kts 93°
2026-05-08 05:57 41.13308 14.20716 32915 ft 457 kts 93°
2026-05-08 05:58 41.13122 14.29142 32909 ft 457 kts 93°
2026-05-08 05:58 41.12931 14.37565 32925 ft 457 kts 93°
2026-05-08 05:59 41.12731 14.45976 32939 ft 456 kts 94°
2026-05-08 05:59 41.12522 14.54381 32946 ft 456 kts 94°
2026-05-08 06:00 41.12311 14.62795 32945 ft 456 kts 94°
2026-05-08 06:00 41.12092 14.71150 32954 ft 456 kts 94°
2026-05-08 06:01 41.11900 14.78196 32954 ft 456 kts 94°
2026-05-08 06:01 41.11629 14.87970 32955 ft 456 kts 94°
2026-05-08 06:02 41.11433 14.94969 32953 ft 456 kts 94°
2026-05-08 06:02 41.11197 15.03366 32957 ft 456 kts 94°
2026-05-08 06:03 41.10899 15.13188 32961 ft 456 kts 94°
2026-05-08 06:03 41.10305 15.20101 32962 ft 453 kts 104°
2026-05-08 06:04 41.08958 15.28261 32965 ft 453 kts 104°
2026-05-08 06:04 41.07618 15.36424 32965 ft 453 kts 103°
2026-05-08 06:05 41.06285 15.44589 32970 ft 453 kts 103°
2026-05-08 06:05 41.04952 15.52695 32967 ft 453 kts 104°
2026-05-08 06:06 41.03587 15.60851 32978 ft 453 kts 104°
2026-05-08 06:06 41.02220 15.69005 32958 ft 453 kts 104°
2026-05-08 06:06 41.01538 15.73082 32788 ft 453 kts 104°
2026-05-08 06:07 41.00857 15.77158 31938 ft 454 kts 104°
2026-05-08 06:07 41.00170 15.81256 31105 ft 456 kts 104°
2026-05-08 06:07 40.99484 15.85347 30509 ft 452 kts 104°
2026-05-08 06:07 40.98810 15.89336 29944 ft 448 kts 104°
2026-05-08 06:08 40.98130 15.93342 29298 ft 444 kts 104°
2026-05-08 06:08 40.97459 15.97314 28671 ft 440 kts 104°
2026-05-08 06:08 40.96791 16.01258 28247 ft 437 kts 105°
2026-05-08 06:08 40.96123 16.05182 28003 ft 436 kts 105°
2026-05-08 06:09 40.95460 16.09091 27953 ft 435 kts 103°
2026-05-08 06:09 40.95078 16.13074 27964 ft 438 kts 95°
2026-05-08 06:09 40.94939 16.17099 27881 ft 436 kts 94°
2026-05-08 06:09 40.94808 16.21094 27303 ft 433 kts 94°
2026-05-08 06:10 40.94679 16.25072 26465 ft 435 kts 94°
2026-05-08 06:10 40.94548 16.29079 25738 ft 436 kts 94°
2026-05-08 06:10 40.94413 16.33075 25152 ft 433 kts 94°
2026-05-08 06:10 40.94276 16.37050 24412 ft 434 kts 94°
2026-05-08 06:11 40.94133 16.41039 23714 ft 434 kts 94°
2026-05-08 06:11 40.93991 16.44973 23038 ft 431 kts 94°
2026-05-08 06:11 40.93850 16.48916 22391 ft 427 kts 93°
2026-05-08 06:11 40.94017 16.52813 21796 ft 424 kts 82°
2026-05-08 06:12 40.94751 16.56573 21212 ft 421 kts 71°
2026-05-08 06:12 40.95783 16.60236 20346 ft 426 kts 70°
2026-05-08 06:12 40.96829 16.63890 19695 ft 424 kts 70°
2026-05-08 06:12 40.97874 16.67523 19007 ft 422 kts 70°
2026-05-08 06:13 40.98921 16.71174 18247 ft 424 kts 70°
2026-05-08 06:13 40.99959 16.74814 17512 ft 419 kts 70°
2026-05-08 06:13 41.00973 16.78383 16380 ft 410 kts 71°
2026-05-08 06:13 41.01961 16.81877 15346 ft 401 kts 71°
2026-05-08 06:14 41.02926 16.85295 14346 ft 391 kts 71°
2026-05-08 06:14 41.03871 16.88642 13304 ft 382 kts 71°
2026-05-08 06:14 41.04792 16.91903 12175 ft 374 kts 71°
2026-05-08 06:14 41.05693 16.95097 11018 ft 369 kts 71°
2026-05-08 06:15 41.06578 16.98249 10245 ft 355 kts 71°
2026-05-08 06:15 41.07409 17.01218 9510 ft 341 kts 71°
2026-05-08 06:15 41.08221 17.04112 8730 ft 329 kts 71°
2026-05-08 06:15 41.09010 17.06914 7981 ft 319 kts 72°
2026-05-08 06:16 41.09782 17.09622 7236 ft 310 kts 70°
2026-05-08 06:16 41.10921 17.12022 6526 ft 308 kts 49°
2026-05-08 06:16 41.12579 17.13658 6288 ft 291 kts 31°
2026-05-08 06:16 41.14496 17.14464 5650 ft 291 kts 10°
2026-05-08 06:17 41.18275 17.13267 4803 ft 275 kts 326°
2026-05-08 06:17 41.19652 17.11595 4574 ft 257 kts 306°
2026-05-08 06:17 41.20533 17.09618 4363 ft 242 kts 294°
2026-05-08 06:18 41.21147 17.07643 4163 ft 226 kts 278°
2026-05-08 06:18 41.21265 17.05694 3912 ft 218 kts 259°
2026-05-08 06:18 41.20991 17.03720 3647 ft 213 kts 254°
2026-05-08 06:18 41.20701 17.01828 3599 ft 206 kts 254°
2026-05-08 06:19 41.20420 16.99979 3531 ft 201 kts 254°
2026-05-08 06:19 41.20099 16.98184 3458 ft 198 kts 245°
2026-05-08 06:19 41.19621 16.96487 3139 ft 198 kts 244°
2026-05-08 06:19 41.19139 16.94791 2856 ft 196 kts 244°
2026-05-08 06:20 41.18660 16.93099 2593 ft 195 kts 244°
2026-05-08 06:20 41.18186 16.91418 2329 ft 195 kts 244°
2026-05-08 06:20 41.17711 16.89731 2063 ft 193 kts 244°
2026-05-08 06:20 41.17256 16.88107 1807 ft 182 kts 243°
2026-05-08 06:21 41.16824 16.86560 1578 ft 177 kts 243°
2026-05-08 06:21 41.16410 16.85078 1365 ft 163 kts 243°
2026-05-08 06:21 41.16031 16.83715 1137 ft 153 kts 243°
2026-05-08 06:21 41.15667 16.82427 948 ft 149 kts 246°
2026-05-08 06:22 41.15296 16.81133 746 ft 146 kts 245°
2026-05-08 06:22 41.14937 16.79888 504 ft 143 kts 246°
2026-05-08 06:22 41.14591 16.78673 316 ft 143 kts 248°
2026-05-08 06:22 41.14248 16.77443 167 ft 141 kts 247°
2026-05-08 06:23 41.13924 16.76315 126 ft 105 kts 249°
2026-05-08 06:23 41.13760 16.75738 139 ft 47 kts 249°
2026-05-08 06:23 41.13650 16.75351 141 ft 43 kts 249°
2026-05-08 06:23 41.13553 16.75003 138 ft 31 kts 249°
2026-05-08 06:24 41.13491 16.74788 139 ft 15 kts 249°
2026-05-08 06:24 41.13425 16.74741 143 ft 9 kts 163°
2026-05-08 06:24 41.13381 16.74801 146 ft 11 kts 121°
2026-05-08 06:24 41.13343 16.74894 148 ft 12 kts 105°
2026-05-08 06:25 41.13367 16.75009 148 ft 14 kts 69°
2026-05-08 06:25 41.13405 16.75142 146 ft 18 kts 69°
2026-05-08 06:25 41.13454 16.75317 142 ft 22 kts 69°
2026-05-08 06:25 41.13510 16.75513 142 ft 24 kts 69°
2026-05-08 06:26 41.13571 16.75730 138 ft 20 kts 69°
2026-05-08 06:26 41.13614 16.75884 137 ft 17 kts 69°
2026-05-08 06:26 41.13637 16.76011 136 ft 15 kts 103°
2026-05-08 06:26 41.13565 16.76104 136 ft 14 kts 133°
2026-05-08 06:27 41.13572 16.76232 136 ft 15 kts 69°
2026-05-08 06:27 41.13604 16.76344 136 ft 9 kts 69°
2026-05-08 06:27 41.13569 16.76387 136 ft 8 kts 160°
2026-05-08 06:27 41.13537 16.76403 136 ft 0 kts 159°